Regional Weather Roundup
Issued by NWS

Home | Current Version | Previous Version | Graphics & Text | Print | Product List | Glossary On
Versions: 1 2 3 4 5 6 7 8 9 10 11 12 13 14 15 16 17 18 19 20 21 22 23 24 25 26 27 28 29 30 31 32 33 34 35 36 37 38 39 40 41 42 43 44 45 46 47 48 49 50
806
ASUS43 KLMK 231410
RWRKY
KENTUCKY REGIONAL WEATHER ROUNDUP
NATIONAL WEATHER SERVICE LOUISVILLE KY
900 AM EST THU FEB 23 2017

NOTE "FAIR" INDICATES FEW OR NO CLOUDS BELOW 12,000 FEET
WITH NO SIGNIFICANT WEATHER AND/OR OBSTRUCTIONS TO VISIBILITY.

KYZ001>023-026-027-061>063-070>075-231500-
WESTERN AND SOUTH CENTRAL KENTUCKY

CITY           SKY/WX    TMP DP  RH WIND       PRES   REMARKS
PADUCAH        SUNNY     58  54  86 S7        29.79R
HENDERSON      SUNNY     59  54  82 S8        29.80R
OWENSBORO      CLOUDY    59  56  89 S7        29.83R
HOPKINSVILLE   CLOUDY    60  59  98 S7        29.83R
BOWLING GREEN  CLOUDY    60  56  86 S8        29.86S
GLASGOW        CLOUDY    57  57 100 S6        29.87S
$$

KYZ024-025-028>034-038-045-046-053-231500-
NORTH CENTRAL KENTUCKY

CITY           SKY/WX    TMP DP  RH WIND       PRES   REMARKS
LOUISVILLE/SDF CLOUDY    63  56  78 S7        29.83R
LOUISVILLE/LOU CLOUDY    62  56  80 S6        29.84R
FORT KNOX      CLOUDY    59  58  97 S10       29.83R
$$

KYZ035>037-039>044-047>052-055>060-089>105-231500-
NORTHEAST KENTUCKY

CITY           SKY/WX    TMP DP  RH WIND       PRES   REMARKS
LEXINGTON      CLOUDY    58  54  86 S8        29.87R
COVINGTON      CLOUDY    60  56  86 SW13      29.82R
FRANKFORT      CLOUDY    60  54  80 S7        29.85R
$$

KYZ054-064>069-076>088-106>120-231500-
SOUTHEAST KENTUCKY

CITY           SKY/WX    TMP DP  RH WIND       PRES   REMARKS
JACKSON        CLOUDY    56  53  90 S3        29.91R
LONDON         CLOUDY    51  49  92 CALM      29.91S FOG
SOMERSET       CLOUDY    52  52 100 CALM      29.92R
MIDDLESBORO    PTSUNNY   47  47 100 CALM      29.95R
MONTICELLO     CLOUDY    54  53  97 W9        29.92R
$$





USA.gov is the U.S. government's official web portal to all federal, state and local government web resources and services.